Погода в Ярославце

Украина / Сумская область     51°32′39″N   33°40′17″E
темп.,
°C
ветер,
м/с
пор.,
м/с
влажн.,
%
обл.,
%
осадки,
мм/ч
давл.,
гПа
погр.,
м
17 августа, ср
ср1700:00+24всв7143983 0.0 1012513
03:00+22в5134799 0.1 1011325
06:00+20всв4858100 0.1 1011153
09:00+23в61256100 0.1 1011725
12:00+22в51262100 0.3 1012536
15:00+27в675091 0.3 10111025
18:00+26св586099 0.0 1010350
21:00+22св6155929 0.0 1010451
18 августа, чт
чт1800:00+21всв51452100 0.0 1011419
03:00+18всв512595 0.0 1010252
06:00+17св511655 0.0 1011210
09:00+21св6105962 0.0 1011434
12:00+26всв68465 0.0 10111157
15:00+28всв67413 0.0 10101670
18:00+26св5105591 0.0 1010446
21:00+21св512617 0.0 1011247
19 августа, пт
пт1900:00+20св511620 0.0 1012244
03:00+19св514583 0.0 1012332
06:00+18всв614680 0.0 1013489
09:00+21всв710675 0.0 1014765
12:00+25всв785851 0.0 10141493
15:00+22св71067100 0.0 1014720
18:00+22св71264100 0.0 1014732
21:00+22всв71158100 0.0 1015843
20 августа, сб
сб2000:00+19всв61078100 0.0 1016560
03:00+16всв598750 0.0 1015336
06:00+15св379532 0.0 1016174
09:00+20в357675 0.0 1016384
12:00+25вюв67610 0.0 10151031
15:00+27вюв784655 0.0 10151935
18:00+25в5105286 0.0 1015465
21:00+20в614472 0.0 1016364
21 августа, вс
вс2100:00+18в4134945 0.0 1015250
03:00+22вюв614295 0.0 1015546
06:00+19вюв61448100 0.3 1015309
09:00+21вюв6124997 0.4 1016479
12:00+22вюв6103899 0.0 1016520
15:00+27вюв81035100 0.0 10151443
18:00+22в5104455 0.0 1015371
21:00+21всв4133697 0.1 1015318